www.pogodaiklimat.ru

Погода и климат >> Архив погоды >> Россия >> Кировская область >> Даровское


ПОГОДА в Даровском

  • Прогноз погоды в Даровском
  • Монитор погоды в Даровском
  • Климат города

АРХИВ ПОГОДЫ в Даровском

Время (UTC), дата Ветер
(напр.,м/с)
 
Видим.   Явления Облачность Т
(С)
Тd
(С)
f
(%)
Тe
(С)
Тes
(С)
Комфортность P
(гПа)
Po
(гПа)
Тmin
(С)
Tmax
(С)
R
(мм)
R24
(мм)
S
(см)
15 11.09 ЮВ 1-1
{4}
20 км 4/0
[Ci]
+11.7 +6.4 70 +12 +12 1028.0 1010.0 +18.7
18 11.09 штиль 0
{1}
н/о н/о +5.6 +4.8 95 +4 +4 1027.8 1009.5
21 11.09 штиль 0 н/о н/о +3.7 +3.2 97 +2 +2 1027.2 1008.7
00 12.09 штиль 0
{2}
н/о н/о +4.4 +3.7 95 +3 +3 1026.0 1007.6
03 12.09 ЮВ 1-2
{4}
20 км в посл. час ливневой дождь 10/6 600 м
[Cb calv Ac As]
+8.2 +5.1 81 +7 +7 1024.1 1006.1 +3.4 0.3
06 12.09 ЮВ 1-3
{5}
20 км 10/8 600 м
[Cb calv Ac As]
+11.3 +6.2 71 +11 +12 1021.4 1003.5
09 12.09 Ю 2-6
{7}
20 км 10/4 600 м
[Sc Ac As]
+18.2 +9.3 56 +19 +20 1017.6 1000.3
12 12.09 Ю 3-7
{10}
20 км 10/6 600 м
[Cb calv As op]
+17.6 +9.4 59 +18 +18 1014.6 997.3
15 12.09 Ю 3-8
{10}
20 км в посл. час ливневой дождь 10/8 600 м
[Cb calv As op]
+17.0 +9.8 63 +17 +17 1011.7 994.4 +18.9 0.4
18 12.09 Ю 3-6
{10}
н/о н/о +14.3 +11.3 82 +13 +13 1008.8 991.3
21 12.09 Ю 3-9
{9}
н/о н/о +16.0 +9.6 66 +16 +16 1006.7 989.4
00 13.09 Ю 3-7
{10}
н/о н/о +14.4 +11.3 82 +13 +13 1005.1 987.7
03 13.09 Ю 2-5
{9}
20 км 10/10 600 м
[Cb calv]
+14.3 +11.1 81 +14 +14 1003.8 986.5 +14.1 1
06 13.09 Ю 3-9
{9}
10 км слабый ливневой дождь 10/10 600 м
[Cb calv]
+15.2 +11.7 80 +15 +15 1002.7 985.4
09 13.09 ЮЗ 2-7
{10}
20 км {ливн. осадки} 9/3 600 м
[Sc Ac trans Ci sp]
+15.8 +9.7 67 +16 +19 1002.6 985.5
12 13.09 ЮЗ 3 10 км слабый ливневой дождь 10/8 600 м
[Cb calv As op]
+11.7 +7.8 77 +10 +10 1004.8 987.3
15 13.09 ЮЗ 3-10
{13}
20 км {ливн. осадки} 3/3 600 м
[Sc]
+14.2 +4.8 53 +13 +13 1005.4 988.0 +17.9 2
18 13.09 ЮЗ 4-9
{11}
н/о н/о +13.0 +5.3 59 +11 +11 1006.9 989.3
21 13.09 ЮЗ 3-8
{12}
н/о н/о +11.3 +5.7 68 +10 +10 1007.4 989.8
00 14.09 ЮЗ 2-5
{10}
н/о н/о +10.3 +6.0 75 +9 +9 1008.8 991.1
03 14.09 ЮЗ 3-7
{10}
20 км 9/9 600 м
[Sc]
+10.7 +7.0 78 +9 +9 1010.6 992.9 +9.8
06 14.09 З 2-7
{10}
20 км 10/10 600 м
[Cb calv]
+11.8 +7.4 74 +11 +11 1012.9 995.2
09 14.09 З 3-7
{10}
20 км 9/9 600 м
[Sc]
+15.1 +8.1 63 +14 +15 1014.6 997.2
12 14.09 З 3-9
{10}
20 км 9/8 600 м
[Sc Ci fib]
+17.0 +7.4 53 +17 +17 1016.1 998.7
15 14.09 штиль 0
{9}
20 км 8/3 600 м
[Sc Ci]
+12.4 +7.4 72 +12 +12 1017.5 999.8 +17.4
18 14.09 штиль 0
{2}
н/о н/о +7.9 +6.7 92 +7 +7 1019.3 1001.2
21 14.09 штиль 0
{2}
н/о н/о +4.9 +4.2 95 +4 +4 1020.2 1001.9
00 15.09 штиль 0
{1}
н/о н/о +3.0 +2.4 96 +2 +2 1020.7 1002.3
03 15.09 ЮВ 1-1
{1}
20 км 10/4 600 м
[Sc As trans Cs]
+2.6 +2.1 97 +1 +1 1021.3 1002.9 +2.2
06 15.09 Ю 1-2
{2}
20 км 10/6 600 м
[Sc Ac trans Cs]
+10.8 +8.4 85 +10 +11 1021.1 1003.2
09 15.09 ЮЗ 2-4
{7}
20 км 10/6 1000 м
[Cu Sc Cc]
+17.5 +7.1 50 +18 +20 1020.5 1003.0
12 15.09 З 1-3
{5}
20 км 9/8 1000 м
[Cu Sc Cs]
+17.9 +5.6 44 +19 +20 1020.3 1002.8
15 15.09 штиль 0
{4}
20 км 8/3 600 м
[Sc diur, vesp Ci fib]
+12.7 +7.8 72 +12 +12 1020.3 1002.6 +19.3
18 15.09 штиль 0
{1}
н/о н/о +6.9 +6.1 95 +6 +6 1021.4 1003.2
21 15.09 штиль 0
{1}
н/о н/о +4.5 +3.8 95 +3 +3 1021.8 1003.4
00 16.09 штиль 0
{1}
н/о н/о +3.1 +2.6 97 +2 +2 1021.4 1003.0
03 16.09 штиль 0
{1}
20 км 10/1 600 м
[Sc Cs]
+2.5 +2.0 96 +1 +1 1021.0 1002.6 +2.1
06 16.09 ЮВ 2-5
{5}
20 км 10/0
[Ac trans Cs]
+13.9 +7.4 65 +13 +15 1018.9 1001.2
09 16.09 ЮВ 3-7
{7}
20 км 10/1 600 м
[Sc Ac trans Cs]
+17.8 +7.3 50 +18 +20 1017.1 999.7
12 16.09 ЮВ 2-5
{7}
20 км 10/3 600 м
[Sc Ac As]
+17.2 +8.6 57 +18 +18 1014.5 997.2
15 16.09 ЮВ 2-4
{6}
20 км 10/4 600 м
[Sc Ac As]
+15.3 +8.0 62 +15 +15 1011.8 994.4 +18.2
18 16.09 ЮВ 2-5
{6}
н/о н/о +14.4 +8.3 67 +14 +14 1009.9 992.5
21 16.09 ЮВ 2-4
{6}
н/о н/о +14.5 +8.6 68 +14 +14 1008.0 990.6
00 17.09 В 1-1
{5}
н/о н/о +12.1 +8.3 78 +12 +12 1006.2 988.6
03 17.09 штиль 0
{2}
20 км 10/4 600 м
[Sc Ac As]
+10.5 +7.8 83 +10 +10 1004.8 987.3 +10.5
06 17.09 З 1-3
{5}
20 км 10/0
[Ac As]
+12.7 +8.9 78 +13 +14 1004.8 987.4 +10.0
09 17.09 З 1-2
{5}
10 км слабый дождь 10/0
[Ac As]
+12.4 +10.0 85 +12 +14 1006.8 989.3
12 17.09 СЗ 4-8
{11}
20 км {ливн. осадки, дождь} 10/10 600 м
[Cb calv]
+10.9 +7.4 79 +9 +9 1009.3 991.7
15 17.09 З 1-3
{9}
20 км 3/3 600 м
[Sc diur, vesp]
+9.9 +5.3 73 +10 +10 1012.0 994.2 +13.7 2
18 17.09 штиль 0
{3}
н/о н/о +4.6 +3.9 95 +3 +3 1014.2 996.0
21 17.09 штиль 0
{1}
н/о н/о +2.3 +1.8 96 +1 +1 1014.8 996.5
00 18.09 штиль 0
{1}
н/о н/о +0.4 -0.0 97 -1 -1 1014.4 995.9
03 18.09 штиль 0
{1}
10 км 10/0
[Ac As Cs]
+0.1 -0.2 98 -1 -1 1013.1 994.6 -0.6
06 18.09 ЮВ 1-3
{3}
20 км 9/0
[Ac As Ci fib]
+7.6 +5.8 88 +7 +8 1011.4 993.5
09 18.09 Ю 2-5
{8}
20 км 10/0
[Ac As]
+13.2 +5.3 59 +13 +14 1008.5 991.0
12 18.09 Ю 2-4
{7}
20 км слабый дождь 10/4 600 м
[Sc Ac As]
+12.1 +5.9 66 +11 +12 1006.3 988.8

 

Местоположение метеостанции Даровское (Кировская область, Россия): широта 58.77 долгота 47.97 высота над уровнем моря 147 м.

В архиве по умолчанию представлена погода в Даровском за последнюю неделю. Архивные данные за месяц целиком и за предыдущие месяцы, начиная с января 2011 года, Вы можете получить, выбрав интересующий диапазон дат из раскрывающегося списка и нажав кнопку "Ввод!".


*Определитесь, кто Вы:
робот инопланетянин человек

Внимание! Время в таблицах - всемирное. Для получения местного времени необходимо прибавить поправку, которая в Даровском равна 3 ч.

Смотрите также архив погоды в соседних городах и на ближайших метеорологических станциях:

Погода в Котельниче (Кировская область, Россия) (57 км)
Погода в Вохме (Костромская область, Россия) (71 км)
Погода в Шабалино (Кировская область, Россия) (72 км)
Погода в Кирове (Кировская область, Россия) (98 км)
Погода в Опарино (Кировская область, Россия) (121 км)
Погода в Пыщуге (Костромская область, Россия) (131 км)
Погода в Кумене (Кировская область, Россия) (136 км)
Погода в Шахунье (Нижегородская область, Россия) (146 км)
Погода в Шарье (Костромская область, Россия) (148 км)
Погода в Яранске (Кировская область, Россия) (156 км)

Пояснения к столбцам:

Ветер - указаны скорость ветра в м/с - средняя за 10 мин, порывы в срок и между сроками (в фигурных скобках) и направление, откуда дует ветер: С - северный, СВ - северо-восточный, В - восточный, ЮВ - юго-восточный, Ю - южный, ЮЗ - юго-западный, З - западный, СЗ - северо-западный.
Видимость - горизонтальная дальность видимости в метрах или километрах. При видимости от 1 до 10 км при отсутствии осадков обычно наблюдается дымка, при ухудшении видимости до 1 км и менее - туман. В сухую погоду видимость может ухудшаться дымом, пылью или мглою.
Явления - указаны атмосферные явления, наблюдавшиеся в срок или в последний час перед сроком; фигурными скобками обозначены явления, наблюдавшиеся между сроками (за 1-3 часа до срока); квадратными скобками обозначены град или гололедные отложения с указанием их диаметра в мм.
Облачность - указаны через наклонную черту общая и нижняя облачность в баллах и высота нижней границы облаков в метрах; квадратными скобками обозначены формы облаков: Ci - перистые, Cs - перисто-слоистые, Cc - перисто-кучевые, Ac - высококучевые, As - высокослоистые, Sc - слоисто-кучевые, Ns - слоисто-дождевые, Cu - кучевые, Cb - кучево-дождевые. Подробнее классификацию облаков см. в Атласе облаков (PDF).
T - Температура воздуха - температура, измеренная на высоте 2 м над землей.
Td - Температура точки росы - температура, при понижении до которой содержащийся в воздухе водяной пар достигнет насыщения.
f - Относительная влажность воздуха - влажноcть воздуха, измеренная на высоте 2 м над землей.
Te - Эффективная температура - температура, которую ощущает одетый по сезону человек в тени. Характеристика душности погоды. При расчете учитывается влияние влажности воздуха и скорости ветра на теплоощущения человека.
Tes - Эффективная температура на солнце - температура, которую ощущает человек, с поправкой на солнечный нагрев. Характеристика знойности погоды. Зависит от высоты солнца над горизонтом, облачности и скорости ветра. Ночью, в пасмурную погоду, а также при ветре 12 м/с и более поправка равна нулю.
P - Атмосферное давление - приведенное к уровню моря атмосферное давление.
Po - Атмосферное давление - измеренное на уровне метеостанции атмосферное давление.
Tmin - Минимальная температура - минимум температуры воздуха на высоте 2 м над землей.
Tmax - Максимальная температура - максимум температуры воздуха на высоте 2 м над землей.
R - Количество осадков - Количество выпавших осадков за период времени, мм. При наведении курсора мыши на число - период времени, за который выпало указанное количество осадков.
R24 - Количество осадков - Количество выпавших осадков за 24 часа, мм.
S - Снежный покров - Высота снежного покрова, см. При наведении курсора мыши на число - состояние снежного покрова и степень покрытия местности в баллах.